SCP
0 0 0 0 0 0 0 0 0 0 0 0 0 0 0 0 0 0 0 0 0 0 0 0 0 0 0 0 0 0 0 0 0 0 0 0 0 0 0 0 0 0 0 0 0
0 0 0 0 0 0 0 0 0 0 0 0 0 0 0 0 0 0 0 0 0 0 0 0 0 0 0 0 0 0 0 0 0 0 0 0 0 0 0 0 0 0 0 0 0
0 0 0 0 0 0 0 0 0 0 0 0 0 0 0 0 0 0 0 0 0 0 0 0 0 0 0 0 0 0 0 0 0 0 0 0 0 0 0 0 0 0 0 0 0
0 0 0 0 0 0 0 0 0 0 0 0 0 0 0 0 0 0 0 0 0 0 0 0 0 0 0 0 0 0 0 0 0 0 0 0 0 0 0 0 0 0 0 0 0
0 0 0 0 0 0 0 0 0 0 0 0 0 0 0 0 0 0 0 0 0 0 0 0 0 0 0 0 0 0 0 0 0 0 0 0 0 0 0 0 0 0 0 0 0
0 0 0 0 0 0 0 0 0 0 0 0 0 0 0 0 0 0 0 0 0 0 0 0 0 0 0 0 0 0 0 0 0 0 0 0 0 0 0 0 0 0 0 0 0
0 0 0 0 0 0 0 0 0 0 0 0 0 0 0 0 0 0 0 0 0 0 0 0 0 0 0 0 0 0 0 0 0 0 0 0 0 0 0 0 0 0 0 0 0
0 0 0 0 0 0 0 0 0 0 0 0 0 0 0 0 0 0 0 0 0 0 0 0 0 0 0 0 0 0 0 0 0 0 0 0 0 0 0 0 0 0 0 0 0
0 0 0 0 0 0 0 0 0 0 0 0 0 0 0 0 0 0 0 0 0 0 0 0 0 0 0 0 0 0 0 0 0 0 0 0 0 0 0 0 0 0 0 0 0
0 0 0 0 0 0 0 0 0 0 0 0 0 0 0 0 0 0 0 0 0 0 0 0 0 0 0 0 0 0 0 0 0 0 0 0 0 0 0 0 0 0 0 0 0
0 0 0 0 0 0 0 0 0 0 0 0 0 0 0 0 0 0 0 0 0 0 0 0 0 0 0 0 0 0 0 0 0 0 0 0 0 0 0 0 0 0 0 0 0
0 0 0 0 0 0 0 0 0 0 0 0 0 0 0 0 0 0 0 0 0 0 0 0 0 0 0 0 0 0 0 0 0 0 0 0 0 0 0 0 0 0 0 0 0
0 0 0 0 0 0 0 0 0 0 0 0 0 0 0 0 0 0 0 0 0 0 0 0 0 0 0 0 0 0 0 0 0 0 0 0 0 0 0 0 0 0 0 0 0
0 0 0 0 0 0 0 0 0 0 0 0 0 0 0 0 0 0 0 0 0 0 0 0 0 0 0 0 0 0 0 0 0 0 0 0 0 0 0 -0 0 0 0 0 0
0 0 0 0 0 0 0 0 0 0 0 0 0 0 0 0 0 0 0 0 0 0 0 0 0 0 0 0 0 0 0 0 0 0 0 0 0 0 0 0 0 0 0 0 0
0 0 0 0 0 0 0 0 0 0 0 0 0 0 0 0 0 0 0 0 0 0 0 0 0 0 0 0 0 0 0 0 0 0 0 0 0 0 0 0 0 0 0 0 0
0 0 0 0 0 0 0 0 0 0 0 0 0 0 0 0 0 0 0 0 0 0 0 0 0 0 0 0 0 0 0 0 0 0 0 0 0 0 0 0 0 0 0 0 0
0 0 0 0 0 0 0 0 0 0 0 0 0 0 0 0 0 0 0 0 0 0 0 0 0 0 0 0 0 0 0 0 0 0 0 0 0 0 0 0 0 -0 -0 0 0
0 0 0 0 0 0 0 0 0 0 0 0 0 0 0 0 0 0 0 0 0 0 0 0 0 0 0 0 0 0 0 0 0 0 0 0 0 0 0 -0 -0 -0 -0 0 0
0 0 0 0 0 0 0 0 0 0 0 0 0 0 0 0 0 0 0 0 0 0 0 0 0 0 0 0 0 0 0 0 0 0 0 0 0 0 0 -0 -0 -0 -0 0 0
0 0 0 0 0 0 0 0 0 0 0 0 0 0 0 0 0 0 0 0 0 0 0 0 0 0 0 0 0 0 0 0 0 0 0 0 0 0 0 0 -0 -0 -0 0 0
0 0 0 0 0 0 0 0 0 0 0 0 0 0 0 0 0 0 0 0 0 0 0 0 0 0 0 0 0 0 0 0 0 0 0 0 0 0 0 0 0 -0 -0 0 0
0 0 0 0 0 0 0 0 0 0 0 0 0 0 0 0 0 0 0 0 0 0 0 0 0 0 0 0 0 0 0 0 0 0 0 0 0 0 0 0 0 0 0 0 0
0 0 0 0 0 0 0 0 0 0 0 0 0 0 0 0 0 0 0 0 0 0 0 0 0 0 0 0 0 0 0 0 0 0 0 0 0 0 0 0 0 0 0 0 0
0 0 0 0 0 0 0 0 0 0 0 0 0 0 0 0 0 0 0 0 0 0 0 0 0 0 0 0 0 0 0 0 0 0 0 0 0 0 0 0 0 -0 -0 -0 0
0 0 0 0 0 0 0 0 0 0 0 0 0 0 0 0 0 0 0 0 0 0 0 0 0 0 0 0 0 0 0 0 0 0 0 0 -0 0 0 0 0 -0 -0 -0 0
0 0 0 0 0 0 0 0 0 0 0 0 0 0 0 0 0 0 0 0 0 0 0 0 0 0 0 0 0 0 0 0 0 0 0 0 0 0 0 0 0 0 0 -0 0
Wind_Speed_500mb
6 5 4 2 2 4 4 2 1 2 7 10 16 15 12 11 7 2 2 2 8 13 14 16 12 10 10 7 5 2 8 5 9 11 4 3 3 3 5 12 11 11 15 17 17
6 7 6 5 3 4 5 6 4 4 3 12 16 9 1 1 4 8 2 5 10 12 14 13 9 8 7 6 5 7 6 11 4 7 6 6 3 5 7 12 12 20 29 25 24
7 8 6 4 5 4 6 7 8 6 2 7 12 16 12 3 5 5 3 5 8 9 12 13 10 5 7 7 8 3 7 10 5 6 5 4 5 3 4 11 20 26 29 29 28
11 10 10 6 5 6 6 7 7 7 3 4 6 17 16 9 2 4 3 4 10 10 13 12 7 4 7 5 5 7 3 5 10 7 5 6 5 9 18 26 26 30 26 27 34
16 12 12 10 8 8 9 9 7 4 1 3 3 14 12 4 2 2 3 5 10 9 12 9 10 8 10 8 5 6 5 5 5 5 7 9 13 12 29 30 35 33 31 32 32
15 16 13 13 11 9 11 9 9 9 2 2 8 9 6 2 4 5 6 6 7 9 11 10 7 12 14 7 5 7 8 6 3 5 8 7 8 8 11 5 12 27 33 31 32
18 17 14 14 13 11 9 6 7 10 12 3 8 8 6 8 8 7 9 8 11 10 13 16 19 4 12 8 9 14 5 5 7 1 6 7 11 17 26 16 17 22 27 29 31
21 18 17 15 13 13 10 8 7 9 10 12 8 6 5 12 11 10 8 13 13 14 14 15 17 17 10 17 8 6 7 6 3 3 3 10 17 12 14 22 26 27 30 30 32
24 21 18 16 15 13 11 12 9 9 10 10 10 7 5 13 11 11 11 9 12 11 13 13 5 11 9 6 6 10 4 5 10 5 0 6 15 11 11 16 30 33 35 31 37
28 25 20 18 16 15 12 11 10 8 9 12 10 4 9 7 10 11 11 11 6 10 10 4 8 8 8 9 6 6 4 6 9 5 3 10 36 30 50 42 46 41 30 22 32
31 28 23 20 18 16 12 11 7 7 17 10 7 6 11 13 10 8 10 11 6 4 5 5 10 3 3 1 5 3 3 6 7 4 8 10 20 32 45 36 46 35 21 17 23
34 30 27 22 20 19 19 15 11 3 6 14 10 10 13 16 7 10 13 7 5 3 2 9 6 7 2 2 0 4 4 8 9 4 6 13 31 25 12 15 27 25 16 14 17
38 33 29 25 23 22 25 27 10 7 5 8 12 10 10 15 8 11 12 11 8 6 7 8 8 3 5 7 2 1 5 2 5 16 4 15 13 10 6 9 9 16 12 12 16
38 36 31 25 20 23 25 23 15 8 8 8 10 9 14 12 3 9 11 7 7 10 6 10 1 5 7 4 3 5 3 2 6 10 6 8 9 7 8 16 10 20 22 19 16
37 37 32 31 14 19 14 19 15 7 4 5 8 12 14 7 15 5 9 5 11 9 9 3 2 2 5 4 1 2 2 1 2 3 6 2 4 12 7 8 10 17 14 11 13
39 40 36 35 36 15 17 22 22 11 14 4 8 9 9 5 5 11 4 6 13 10 11 6 2 3 4 4 2 2 3 7 7 4 5 2 4 9 6 7 9 10 8 7 13
43 41 44 37 26 24 22 32 8 9 7 9 10 11 6 8 5 8 7 6 9 10 1 8 1 1 4 6 1 3 6 7 11 8 8 4 4 16 9 11 9 14 16 10 14
53 47 47 42 30 28 38 7 7 7 13 4 8 8 12 13 5 10 9 6 6 8 8 11 9 5 4 3 6 4 4 9 8 2 10 2 10 8 9 15 13 17 17 16 19
62 57 56 49 38 34 29 6 17 16 15 19 7 9 7 5 9 8 12 10 16 18 12 9 5 3 6 3 2 3 4 5 12 4 5 6 14 14 9 16 19 23 21 26 21
82 71 70 53 44 38 5 23 11 8 13 6 17 10 17 14 13 14 16 8 12 12 6 9 7 3 2 3 5 3 8 6 6 2 7 10 11 9 9 15 15 20 30 27 17
91 48 43 59 49 30 17 17 15 17 17 14 13 11 10 17 15 13 14 3 8 9 12 8 6 6 4 6 12 3 1 5 6 6 8 3 13 14 14 12 16 25 26 23 18
55 10 53 75 23 15 21 14 21 14 24 9 9 6 15 16 13 12 20 2 25 24 17 13 10 6 9 4 4 1 4 7 8 8 0 4 14 5 13 10 14 25 24 22 21
38 17 78 82 25 17 4 9 11 11 12 14 15 8 7 14 9 8 10 2 17 13 14 16 1 5 10 6 7 6 8 6 7 5 12 10 12 2 6 14 22 27 31 31 28
25 7 15 39 16 30 17 12 23 19 8 12 9 8 8 5 9 12 7 3 11 6 3 15 6 12 12 9 10 5 8 11 8 7 7 14 17 22 14 11 22 33 45 50 46
14 11 22 17 30 8 21 23 28 17 11 22 5 12 16 9 6 8 6 5 5 7 4 6 10 6 2 6 6 9 10 13 16 11 13 24 20 33 14 13 30 54 42 38 37
16 10 16 6 47 29 28 26 49 33 21 13 12 22 14 13 18 20 18 11 14 8 12 3 6 5 4 5 2 9 15 21 25 6 23 20 39 39 63 49 37 29 29 35 35
26 27 13 19 32 33 46 36 42 26 29 26 26 15 13 10 6 11 12 27 17 20 14 15 13 7 7 3 6 12 19 28 10 12 22 20 41 12 11 14 27 29 34 40 29
Wind_Direction_500mb
298 322 339 315 256 254 269 265 253 281 188 155 120 113 103 78 70 208 199 125 147 130 128 135 133 137 138 94 78 109 72 185 203 150 231 169 180 255 263 266 254 242 264 279 287
292 301 323 323 286 237 271 287 271 329 235 207 215 231 260 163 74 49 50 103 142 132 131 150 138 142 92 79 28 75 118 207 181 159 176 181 165 294 308 296 269 260 265 272 276
262 284 299 309 302 261 262 284 301 308 233 210 220 220 214 321 300 340 43 118 152 167 158 146 118 100 77 63 27 76 173 160 167 168 171 211 208 240 282 293 269 275 294 271 277
263 266 277 282 285 281 291 282 274 286 231 265 279 209 210 270 177 335 32 149 159 157 155 156 149 106 71 81 46 88 95 162 164 181 169 228 261 276 232 245 273 293 288 282 286
262 259 271 277 282 284 281 266 249 234 329 245 141 158 177 222 212 44 71 159 160 170 174 168 156 138 123 115 109 97 163 138 158 203 257 258 253 254 259 272 264 267 272 276 289
247 263 268 275 281 283 293 280 223 202 216 206 175 180 190 272 172 98 86 100 165 168 166 178 168 138 103 69 74 119 118 116 226 283 268 262 279 333 238 248 270 253 268 277 285
236 249 253 266 276 281 284 260 222 220 221 199 196 211 233 223 196 118 87 121 121 122 128 129 133 118 117 105 106 116 69 323 235 283 289 350 276 232 241 250 262 257 264 284 293
242 235 248 254 262 275 278 271 242 226 211 208 206 213 256 185 185 145 125 102 113 122 119 116 113 102 65 117 63 61 54 7 244 131 282 59 274 258 246 240 258 267 272 290 306
244 247 244 249 255 259 261 260 246 232 215 206 197 226 252 187 192 158 155 137 132 127 121 129 100 84 86 76 22 17 229 229 314 187 291 137 274 303 280 261 266 276 285 289 301
248 245 244 244 249 257 248 223 206 213 209 208 214 221 205 202 185 173 166 156 168 145 118 105 64 70 49 50 257 227 229 263 254 339 272 257 266 274 279 281 270 274 290 281 299
244 247 243 241 237 243 232 176 197 211 215 225 179 242 169 165 169 176 168 149 141 153 109 51 76 75 111 31 310 2 339 284 269 47 313 241 275 282 282 277 265 269 272 284 302
240 241 243 242 240 233 214 211 220 202 255 230 206 212 182 163 146 159 166 169 141 152 260 39 120 164 168 49 352 37 297 284 284 318 358 326 295 281 295 259 245 254 247 272 300
240 236 239 236 241 239 225 222 252 216 261 227 206 190 193 185 178 163 176 148 110 79 349 129 140 126 111 56 36 182 219 266 250 324 246 313 295 344 322 281 273 245 251 255 283
240 235 233 233 244 236 233 223 222 194 48 223 210 195 190 170 119 161 156 147 55 145 114 80 169 156 108 111 131 272 127 35 328 26 288 7 280 301 330 303 286 269 250 261 278
244 232 229 217 215 208 217 204 189 171 19 164 166 163 173 179 140 112 152 136 144 127 109 160 132 173 120 120 105 253 105 83 40 355 355 342 65 271 349 297 296 304 280 251 278
239 231 228 223 223 218 201 169 151 45 244 198 134 166 137 150 130 122 128 109 116 96 49 96 93 23 102 105 146 168 124 60 56 48 18 358 103 282 232 227 288 306 315 273 282
231 230 228 220 222 211 180 152 58 167 319 218 184 165 167 147 136 147 167 171 157 92 292 7 125 124 80 112 52 88 55 342 356 9 221 15 16 252 273 250 245 285 299 283 280
216 221 229 223 210 193 171 67 160 231 203 121 124 107 185 158 169 154 145 202 266 83 101 147 304 148 19 88 152 80 125 148 217 294 280 16 238 249 232 296 278 292 292 279 279
209 213 221 218 208 190 175 188 202 197 165 148 85 115 235 204 141 141 199 204 205 178 147 130 289 37 57 63 69 210 70 147 100 57 37 256 284 294 276 284 278 272 269 267 279
202 201 215 206 200 190 151 230 217 204 132 156 170 166 176 185 154 177 179 197 185 186 125 209 83 339 34 109 40 22 163 80 10 22 311 292 281 246 258 252 255 258 251 259 270
197 182 205 194 189 183 216 217 215 221 167 158 191 150 177 172 175 189 196 176 142 140 95 130 91 298 20 204 176 114 26 62 112 125 173 271 277 208 217 221 228 244 246 257 263
181 169 171 177 166 200 217 190 200 173 202 212 148 141 173 159 158 194 199 231 161 159 154 188 125 137 207 251 325 320 181 180 123 245 116 149 273 214 225 251 253 271 272 266 266
175 137 167 171 190 212 287 234 224 148 182 183 204 209 179 160 131 163 169 38 157 167 161 182 342 59 349 11 3 231 195 164 101 75 203 147 261 241 228 258 249 266 273 272 271
164 137 174 197 237 193 167 207 205 208 196 177 165 124 104 92 29 158 132 113 159 205 181 137 105 159 187 188 126 184 206 187 150 134 188 228 277 279 274 253 269 271 283 282 269
202 198 172 185 217 175 180 172 193 193 215 178 188 205 163 136 92 136 115 111 73 169 108 131 179 128 338 44 154 189 172 185 198 202 186 269 228 264 264 230 274 299 301 293 280
189 178 187 225 195 193 190 206 197 193 156 210 196 188 182 168 184 184 145 195 182 145 160 174 159 113 352 24 16 261 220 199 221 238 268 280 283 267 275 277 274 289 290 297 294
249 241 207 191 181 185 210 204 205 174 212 202 184 145 180 225 146 156 146 131 145 147 161 149 137 113 246 30 19 304 224 193 185 205 211 224 243 303 265 242 270 281 274 288 297
Wind_Speed_850mb
6 5 4 2 2 4 4 2 1 2 7 10 16 15 12 11 7 2 2 2 8 13 14 16 12 10 10 7 5 2 8 5 9 11 4 3 3 3 5 12 11 11 15 17 17
6 7 6 5 3 4 5 6 4 4 3 12 16 9 1 1 4 8 2 5 10 12 14 13 9 8 7 6 5 7 6 11 4 7 6 6 3 5 7 12 12 20 29 25 24
7 8 6 4 5 4 6 7 8 6 2 7 12 16 12 3 5 5 3 5 8 9 12 13 10 5 7 7 8 3 7 10 5 6 5 4 5 3 4 11 20 26 29 29 28
11 10 10 6 5 6 6 7 7 7 3 4 6 17 16 9 2 4 3 4 10 10 13 12 7 4 7 5 5 7 3 5 10 7 5 6 5 9 18 26 26 30 26 27 34
16 12 12 10 8 8 9 9 7 4 1 3 3 14 12 4 2 2 3 5 10 9 12 9 10 8 10 8 5 6 5 5 5 5 7 9 13 12 29 30 35 33 31 32 32
15 16 13 13 11 9 11 9 9 9 2 2 8 9 6 2 4 5 6 6 7 9 11 10 7 12 14 7 5 7 8 6 3 5 8 7 8 8 11 5 12 27 33 31 32
18 17 14 14 13 11 9 6 7 10 12 3 8 8 6 8 8 7 9 8 11 10 13 16 19 4 12 8 9 14 5 5 7 1 6 7 11 17 26 16 17 22 27 29 31
21 18 17 15 13 13 10 8 7 9 10 12 8 6 5 12 11 10 8 13 13 14 14 15 17 17 10 17 8 6 7 6 3 3 3 10 17 12 14 22 26 27 30 30 32
24 21 18 16 15 13 11 12 9 9 10 10 10 7 5 13 11 11 11 9 12 11 13 13 5 11 9 6 6 10 4 5 10 5 0 6 15 11 11 16 30 33 35 31 37
28 25 20 18 16 15 12 11 10 8 9 12 10 4 9 7 10 11 11 11 6 10 10 4 8 8 8 9 6 6 4 6 9 5 3 10 36 30 50 42 46 41 30 22 32
31 28 23 20 18 16 12 11 7 7 17 10 7 6 11 13 10 8 10 11 6 4 5 5 10 3 3 1 5 3 3 6 7 4 8 10 20 32 45 36 46 35 21 17 23
34 30 27 22 20 19 19 15 11 3 6 14 10 10 13 16 7 10 13 7 5 3 2 9 6 7 2 2 0 4 4 8 9 4 6 13 31 25 12 15 27 25 16 14 17
38 33 29 25 23 22 25 27 10 7 5 8 12 10 10 15 8 11 12 11 8 6 7 8 8 3 5 7 2 1 5 2 5 16 4 15 13 10 6 9 9 16 12 12 16
38 36 31 25 20 23 25 23 15 8 8 8 10 9 14 12 3 9 11 7 7 10 6 10 1 5 7 4 3 5 3 2 6 10 6 8 9 7 8 16 10 20 22 19 16
37 37 32 31 14 19 14 19 15 7 4 5 8 12 14 7 15 5 9 5 11 9 9 3 2 2 5 4 1 2 2 1 2 3 6 2 4 12 7 8 10 17 14 11 13
39 40 36 35 36 15 17 22 22 11 14 4 8 9 9 5 5 11 4 6 13 10 11 6 2 3 4 4 2 2 3 7 7 4 5 2 4 9 6 7 9 10 8 7 13
43 41 44 37 26 24 22 32 8 9 7 9 10 11 6 8 5 8 7 6 9 10 1 8 1 1 4 6 1 3 6 7 11 8 8 4 4 16 9 11 9 14 16 10 14
53 47 47 42 30 28 38 7 7 7 13 4 8 8 12 13 5 10 9 6 6 8 8 11 9 5 4 3 6 4 4 9 8 2 10 2 10 8 9 15 13 17 17 16 19
62 57 56 49 38 34 29 6 17 16 15 19 7 9 7 5 9 8 12 10 16 18 12 9 5 3 6 3 2 3 4 5 12 4 5 6 14 14 9 16 19 23 21 26 21
82 71 70 53 44 38 5 23 11 8 13 6 17 10 17 14 13 14 16 8 12 12 6 9 7 3 2 3 5 3 8 6 6 2 7 10 11 9 9 15 15 20 30 27 17
91 48 43 59 49 30 17 17 15 17 17 14 13 11 10 17 15 13 14 3 8 9 12 8 6 6 4 6 12 3 1 5 6 6 8 3 13 14 14 12 16 25 26 23 18
55 10 53 75 23 15 21 14 21 14 24 9 9 6 15 16 13 12 20 2 25 24 17 13 10 6 9 4 4 1 4 7 8 8 0 4 14 5 13 10 14 25 24 22 21
38 17 78 82 25 17 4 9 11 11 12 14 15 8 7 14 9 8 10 2 17 13 14 16 1 5 10 6 7 6 8 6 7 5 12 10 12 2 6 14 22 27 31 31 28
25 7 15 39 16 30 17 12 23 19 8 12 9 8 8 5 9 12 7 3 11 6 3 15 6 12 12 9 10 5 8 11 8 7 7 14 17 22 14 11 22 33 45 50 46
14 11 22 17 30 8 21 23 28 17 11 22 5 12 16 9 6 8 6 5 5 7 4 6 10 6 2 6 6 9 10 13 16 11 13 24 20 33 14 13 30 54 42 38 37
16 10 16 6 47 29 28 26 49 33 21 13 12 22 14 13 18 20 18 11 14 8 12 3 6 5 4 5 2 9 15 21 25 6 23 20 39 39 63 49 37 29 29 35 35
26 27 13 19 32 33 46 36 42 26 29 26 26 15 13 10 6 11 12 27 17 20 14 15 13 7 7 3 6 12 19 28 10 12 22 20 41 12 11 14 27 29 34 40 29
Wind_Direction_850mb
298 322 339 315 256 254 269 265 253 281 188 155 120 113 103 78 70 208 199 125 147 130 128 135 133 137 138 94 78 109 72 185 203 150 231 169 180 255 263 266 254 242 264 279 287
292 301 323 323 286 237 271 287 271 329 235 207 215 231 260 163 74 49 50 103 142 132 131 150 138 142 92 79 28 75 118 207 181 159 176 181 165 294 308 296 269 260 265 272 276
262 284 299 309 302 261 262 284 301 308 233 210 220 220 214 321 300 340 43 118 152 167 158 146 118 100 77 63 27 76 173 160 167 168 171 211 208 240 282 293 269 275 294 271 277
263 266 277 282 285 281 291 282 274 286 231 265 279 209 210 270 177 335 32 149 159 157 155 156 149 106 71 81 46 88 95 162 164 181 169 228 261 276 232 245 273 293 288 282 286
262 259 271 277 282 284 281 266 249 234 329 245 141 158 177 222 212 44 71 159 160 170 174 168 156 138 123 115 109 97 163 138 158 203 257 258 253 254 259 272 264 267 272 276 289
247 263 268 275 281 283 293 280 223 202 216 206 175 180 190 272 172 98 86 100 165 168 166 178 168 138 103 69 74 119 118 116 226 283 268 262 279 333 238 248 270 253 268 277 285
236 249 253 266 276 281 284 260 222 220 221 199 196 211 233 223 196 118 87 121 121 122 128 129 133 118 117 105 106 116 69 323 235 283 289 350 276 232 241 250 262 257 264 284 293
242 235 248 254 262 275 278 271 242 226 211 208 206 213 256 185 185 145 125 102 113 122 119 116 113 102 65 117 63 61 54 7 244 131 282 59 274 258 246 240 258 267 272 290 306
244 247 244 249 255 259 261 260 246 232 215 206 197 226 252 187 192 158 155 137 132 127 121 129 100 84 86 76 22 17 229 229 314 187 291 137 274 303 280 261 266 276 285 289 301
248 245 244 244 249 257 248 223 206 213 209 208 214 221 205 202 185 173 166 156 168 145 118 105 64 70 49 50 257 227 229 263 254 339 272 257 266 274 279 281 270 274 290 281 299
244 247 243 241 237 243 232 176 197 211 215 225 179 242 169 165 169 176 168 149 141 153 109 51 76 75 111 31 310 2 339 284 269 47 313 241 275 282 282 277 265 269 272 284 302
240 241 243 242 240 233 214 211 220 202 255 230 206 212 182 163 146 159 166 169 141 152 260 39 120 164 168 49 352 37 297 284 284 318 358 326 295 281 295 259 245 254 247 272 300
240 236 239 236 241 239 225 222 252 216 261 227 206 190 193 185 178 163 176 148 110 79 349 129 140 126 111 56 36 182 219 266 250 324 246 313 295 344 322 281 273 245 251 255 283
240 235 233 233 244 236 233 223 222 194 48 223 210 195 190 170 119 161 156 147 55 145 114 80 169 156 108 111 131 272 127 35 328 26 288 7 280 301 330 303 286 269 250 261 278
244 232 229 217 215 208 217 204 189 171 19 164 166 163 173 179 140 112 152 136 144 127 109 160 132 173 120 120 105 253 105 83 40 355 355 342 65 271 349 297 296 304 280 251 278
239 231 228 223 223 218 201 169 151 45 244 198 134 166 137 150 130 122 128 109 116 96 49 96 93 23 102 105 146 168 124 60 56 48 18 358 103 282 232 227 288 306 315 273 282
231 230 228 220 222 211 180 152 58 167 319 218 184 165 167 147 136 147 167 171 157 92 292 7 125 124 80 112 52 88 55 342 356 9 221 15 16 252 273 250 245 285 299 283 280
216 221 229 223 210 193 171 67 160 231 203 121 124 107 185 158 169 154 145 202 266 83 101 147 304 148 19 88 152 80 125 148 217 294 280 16 238 249 232 296 278 292 292 279 279
209 213 221 218 208 190 175 188 202 197 165 148 85 115 235 204 141 141 199 204 205 178 147 130 289 37 57 63 69 210 70 147 100 57 37 256 284 294 276 284 278 272 269 267 279
202 201 215 206 200 190 151 230 217 204 132 156 170 166 176 185 154 177 179 197 185 186 125 209 83 339 34 109 40 22 163 80 10 22 311 292 281 246 258 252 255 258 251 259 270
197 182 205 194 189 183 216 217 215 221 167 158 191 150 177 172 175 189 196 176 142 140 95 130 91 298 20 204 176 114 26 62 112 125 173 271 277 208 217 221 228 244 246 257 263
181 169 171 177 166 200 217 190 200 173 202 212 148 141 173 159 158 194 199 231 161 159 154 188 125 137 207 251 325 320 181 180 123 245 116 149 273 214 225 251 253 271 272 266 266
175 137 167 171 190 212 287 234 224 148 182 183 204 209 179 160 131 163 169 38 157 167 161 182 342 59 349 11 3 231 195 164 101 75 203 147 261 241 228 258 249 266 273 272 271
164 137 174 197 237 193 167 207 205 208 196 177 165 124 104 92 29 158 132 113 159 205 181 137 105 159 187 188 126 184 206 187 150 134 188 228 277 279 274 253 269 271 283 282 269
202 198 172 185 217 175 180 172 193 193 215 178 188 205 163 136 92 136 115 111 73 169 108 131 179 128 338 44 154 189 172 185 198 202 186 269 228 264 264 230 274 299 301 293 280
189 178 187 225 195 193 190 206 197 193 156 210 196 188 182 168 184 184 145 195 182 145 160 174 159 113 352 24 16 261 220 199 221 238 268 280 283 267 275 277 274 289 290 297 294
249 241 207 191 181 185 210 204 205 174 212 202 184 145 180 225 146 156 146 131 145 147 161 149 137 113 246 30 19 304 224 193 185 205 211 224 243 303 265 242 270 281 274 288 297